Location: Fort Wayne
(41.1310°N, 85.1290°W)
Time: 15:19:12
(UTC-05:00)

Courier 1B Rocket - All Passes

Search period start: 07 December 2016 00:00
Search period end: 17 December 2016 00:00
Orbit: 921 x 1202 km, 28.3° (Epoch: 06 December)

Date Brightness Start Highest point End Pass type
(mag) Time Alt. Az. Time Alt. Az. Time Alt. Az.
07 Dec - 01:38:52 10° WSW 01:45:29 31° S 01:52:05 10° SE night (unlit)
07 Dec - 03:32:43 10° WSW 03:38:18 22° SSW 03:43:47 10° SSE visible
07 Dec - 20:58:30 10° SSE 20:59:10 10° SSE 20:59:49 10° SE visible
07 Dec - 22:45:54 10° SSW 22:51:38 24° SSE 22:57:31 10° ESE night (unlit)
08 Dec - 00:37:54 10° WSW 00:44:29 31° S 00:51:09 10° ESE night (unlit)
08 Dec - 02:31:14 10° WSW 02:37:23 26° SSW 02:43:29 10° SE night (unlit)
08 Dec - 04:27:01 10° SW 04:29:59 12° SSW 04:32:56 10° S visible
08 Dec - 21:45:51 10° SSW 21:50:45 19° SSE 21:55:51 10° ESE visible
08 Dec - 23:37:07 10° SW 23:43:29 30° S 23:50:03 10° ESE night (unlit)
09 Dec - 01:30:01 10° WSW 01:36:24 29° S 01:42:52 10° SE night (unlit)
09 Dec - 03:24:27 10° WSW 03:29:09 17° SSW 03:33:49 10° SSE visible
09 Dec - 20:46:23 10° S 20:49:59 14° SSE 20:53:41 10° SE visible
09 Dec - 22:36:32 10° SW 22:42:33 27° SSE 22:48:47 10° ESE night (unlit)
10 Dec - 00:28:57 10° WSW 00:35:26 30° S 00:42:02 10° SE night (unlit)
10 Dec - 02:22:42 10° WSW 02:28:16 21° SSW 02:33:51 10° SSE night (unlit)
10 Dec - 21:36:13 10° SSW 21:41:40 23° SSE 21:47:20 10° ESE visible
10 Dec - 23:28:05 10° WSW 23:34:26 31° S 23:41:01 10° ESE night (unlit)
11 Dec - 01:21:19 10° WSW 01:27:20 25° SSW 01:33:27 10° SE night (unlit)
11 Dec - 03:16:59 10° SW 03:19:59 12° SSW 03:22:57 10° S night (unlit)
11 Dec - 20:36:15 10° SSW 20:40:51 18° SSE 20:45:38 10° ESE visible
11 Dec - 22:27:24 10° SW 22:33:30 29° S 22:39:53 10° ESE night (unlit)
12 Dec - 00:20:10 10° WSW 00:26:23 28° S 00:32:46 10° SE night (unlit)
12 Dec - 02:14:32 10° WSW 02:19:08 17° SSW 02:23:46 10° SSE night (unlit)
12 Dec - 19:36:57 10° S 19:40:08 14° SSE 19:43:24 10° SE visible
12 Dec - 21:26:55 10° SW 21:32:36 26° SSE 21:38:35 10° ESE visible
12 Dec - 23:19:13 10° WSW 23:25:25 30° S 23:31:53 10° SE night (unlit)
13 Dec - 01:12:51 10° WSW 01:18:14 21° SSW 01:23:44 10° SSE night (unlit)
13 Dec - 20:26:41 10° SSW 20:31:47 22° SSE 20:37:08 10° ESE visible
13 Dec - 22:18:26 10° SW 22:24:29 30° S 22:30:50 10° ESE visible
14 Dec - 00:11:33 10° WSW 00:17:19 24° SSW 00:23:17 10° SE night (unlit)
14 Dec - 02:07:14 10° SW 02:09:58 12° SSW 02:12:44 10° S night (unlit)
14 Dec - 19:26:48 10° SSW 19:31:02 17° SSE 19:35:27 10° ESE visible
14 Dec - 21:17:51 10° SW 21:23:36 28° S 21:29:41 10° ESE visible
14 Dec - 23:10:30 10° WSW 23:16:24 27° S 23:22:34 10° SE night (unlit)
15 Dec - 01:04:48 10° WSW 01:09:07 16° SSW 01:13:32 10° SSE night (unlit)
15 Dec - 18:27:37 10° S 18:30:22 13° SSE 18:33:10 10° SE visible
15 Dec - 20:17:25 10° SW 20:22:46 25° SSE 20:28:24 10° ESE visible
15 Dec - 22:09:38 10° WSW 22:15:30 28° S 22:21:40 10° SE visible
16 Dec - 00:03:11 10° WSW 00:08:16 20° SSW 00:13:30 10° SSE night (unlit)
16 Dec - 19:17:14 10° SSW 19:22:00 21° SSE 19:26:59 10° ESE visible
16 Dec - 21:08:56 10° SW 21:14:37 28° S 21:20:38 10° ESE visible
16 Dec - 23:01:58 10° WSW 23:07:23 23° SSW 23:13:02 10° SE night (unlit)
